FW5376 Weather Reports


time (UTC)temp
C
wind
direction
speed
KPH
gust
KPH
rain 1hr
cm
rain 24hr
cm
rain mn
cm
humidity
%
barometer
mb
20240614124021 8 0.0 0.0 0.00 0.00 0.00 62 1020.1
20240614123021 8 0.0 3.2 0.00 0.00 0.00 62 1020.1
20240614122021 8 0.0 0.0 0.00 0.00 0.00 62 1019.9
20240614121021 8 0.0 1.6 0.00 0.00 0.00 62 1020.0
20240614120021 8 180 1.6 4.8 0.00 0.00 0.00 63 1019.8
20240614115021 8 0.0 4.8 0.00 0.00 0.00 64 1019.8
20240614114021 8 0.0 0.0 0.00 0.00 0.00 63 1019.9
20240614113041 8 0.0 0.0 0.00 0.00 0.00 63 1019.8
20240614112022 8 0.0 0.0 0.00 0.00 0.00 63 1019.8
20240614111021 8 0.0 1.6 0.00 0.00 0.00 62 1019.8
20240614110021 8 0.0 3.2 0.00 0.00 0.00 62 1019.8
20240614105041 8 0.0 0.0 0.00 0.00 0.00 63 1019.7
20240614104021 8 0.0 0.0 0.00 0.00 0.00 62 1019.6
20240614103021 9 0.0 0.0 0.00 0.00 0.00 61 1019.8
20240614102021 9 0.0 4.8 0.00 0.00 0.00 61 1019.6
20240614101021 10 0.0 0.0 0.00 0.00 0.00 61 1019.6
20240614100021 10 0.0 0.0 0.00 0.00 0.00 61 1019.6
20240614095021 10 0.0 3.2 0.00 0.00 0.00 59 1019.6
20240614094021 10 203 1.6 4.8 0.00 0.00 0.00 60 1019.5
20240614093021 10 0.0 3.2 0.00 0.00 0.00 60 1019.3
20240614092021 10 225 1.6 4.8 0.00 0.00 0.00 58 1019.4
20240614091021 10 0.0 1.6 0.00 0.00 0.00 59 1019.4
20240614090021 10 0.0 1.6 0.00 0.00 0.00 60 1019.5
20240614085021 10 0.0 3.2 0.00 0.00 0.00 59 1019.3
20240614084021 11 0.0 3.2 0.00 0.00 0.00 58 1019.2
20240614083041 11 0.0 0.0 0.00 0.00 0.00 57 1019.0
20240614082021 11 0.0 1.6 0.00 0.00 0.00 56 1018.9
20240614081021 11 0.0 0.0 0.00 0.00 0.00 55 1019.0
20240614080021 12 0.0 1.6 0.00 0.00 0.00 54 1018.9
20240614075020 12 0.0 1.6 0.00 0.00 0.00 54 1018.9
20240614074021 12 225 1.6 4.8 0.00 0.00 0.00 54 1019.0
20240614073020 12 0.0 3.2 0.00 0.00 0.00 53 1019.0
20240614072041 13 0.0 1.6 0.00 0.00 0.00 52 1018.9
20240614071020 13 0.0 3.2 0.00 0.00 0.00 49 1018.7
20240614070021 13 0.0 3.2 0.00 0.00 0.00 48 1018.7
20240614065020 13 225 1.6 4.8 0.00 0.00 0.00 50 1018.6
20240614064020 13 0.0 1.6 0.00 0.00 0.00 51 1018.5
20240614063022 13 0.0 1.6 0.00 0.00 0.00 50 1018.4
20240614062040 14 0.0 3.2 0.00 0.00 0.00 50 1018.4
20240614061022 14 0.0 1.6 0.00 0.00 0.00 49 1017.9
20240614060022 15 0.0 0.0 0.00 0.00 0.00 47 1018.0
20240614055022 15 0.0 0.0 0.00 0.00 0.00 45 1017.8
20240614054042 15 0.0 0.0 0.00 0.00 0.00 43 1017.6
20240614053042 15 0.0 3.2 0.00 0.00 0.00 41 1017.7
20240614052022 16 0.0 3.2 0.00 0.00 0.00 40 1017.6
20240614051042 16 225 1.6 6.4 0.00 0.00 0.00 39 1017.5
20240614050022 16 0.0 3.2 0.00 0.00 0.00 38 1017.3
20240614045042 16 270 1.6 9.7 0.00 0.00 0.00 38 1017.4
20240614044022 17 0.0 3.2 0.00 0.00 0.00 40 1017.1
20240614043022 17 0.0 1.6 0.00 0.00 0.00 41 1016.8
20240614042022 17 0.0 1.6 0.00 0.00 0.00 42 1016.8
20240614041021 17 0.0 1.6 0.00 0.00 0.00 42 1016.7
20240614040022 17 0.0 4.8 0.00 0.00 0.00 40 1016.6
20240614035042 18 203 1.6 6.4 0.00 0.00 0.00 39 1016.6
20240614034021 18 0.0 3.2 0.00 0.00 0.00 38 1016.4
20240614033041 18 180 1.6 6.4 0.00 0.00 0.00 37 1016.4
20240614032022 19 0.0 3.2 0.00 0.00 0.00 37 1016.3
20240614031042 19 180 1.6 8.0 0.00 0.00 0.00 36 1016.4
20240614030021 19 180 1.6 6.4 0.00 0.00 0.00 37 1016.5
20240614025022 19 0.0 4.8 0.00 0.00 0.00 39 1016.5
20240614024022 19 203 1.6 4.8 0.00 0.00 0.00 40 1016.5
20240614023021 19 0.0 1.6 0.00 0.00 0.00 40 1016.4
20240614022021 19 180 1.6 6.4 0.00 0.00 0.00 39 1016.5
20240614021022 19 0.0 4.8 0.00 0.00 0.00 38 1016.5
20240614020021 19 0.0 0.0 0.00 0.00 0.00 38 1016.5
20240614015021 19 180 1.6 6.4 0.00 0.00 0.00 36 1016.5
20240614014021 19 0.0 4.8 0.00 0.00 0.00 34 1016.4
20240614013021 20 203 1.6 6.4 0.00 0.00 0.00 35 1016.2
20240614012021 20 203 3.2 8.0 0.00 0.00 0.00 35 1016.3
20240614011021 20 180 1.6 6.4 0.00 0.00 0.00 36 1016.4
20240614010022 20 270 1.6 4.8 0.00 0.00 0.00 36 1016.4
20240614005022 20 180 3.2 8.0 0.00 0.00 0.00 34 1016.5
20240614004021 20 203 1.6 4.8 0.00 0.00 0.00 35 1016.5
20240614003041 20 248 1.6 4.8 0.00 0.00 0.00 35 1016.4
20240614002021 20 270 1.6 11.3 0.00 0.00 0.00 33 1016.5
20240614001021 20 180 1.6 4.8 0.00 0.00 0.00 33 1016.5
20240614000021 20 0.0 4.8 0.00 0.00 0.00 33 1016.4
20240613235021 20 293 3.2 11.3 0.00 0.00 0.00 33 1016.6
20240613234021 20 315 1.6 6.4 0.00 0.00 0.00 32 1016.5
20240613233041 20 338 3.2 8.0 0.00 0.00 0.00 32 1016.4
20240613232021 19 23 1.6 6.4 0.00 0.00 0.00 31 1016.4
20240613231021 20 248 1.6 4.8 0.00 0.00 0.00 29 1016.6
20240613230021 19 315 4.8 8.0 0.00 0.00 0.00 30 1016.6
20240613225021 19 315 1.6 6.4 0.00 0.00 0.00 27 1016.7
20240613224022 19 23 3.2 8.0 0.00 0.00 0.00 28 1016.6
20240613223021 20 248 1.6 4.8 0.00 0.00 0.00 29 1016.6
20240613222021 19 248 3.2 8.0 0.00 0.00 0.00 28 1016.8
20240613221021 19 0 1.6 4.8 0.00 0.00 0.00 28 1017.0
20240613220021 19 293 1.6 6.4 0.00 0.00 0.00 29 1016.9
20240613215021 18 0 4.8 9.7 0.00 0.00 0.00 30 1016.8
20240613214021 19 270 1.6 4.8 0.00 0.00 0.00 31 1016.9
20240613213021 18 45 3.2 6.4 0.00 0.00 0.00 34 1017.0
20240613212021 19 270 1.6 4.8 0.00 0.00 0.00 34 1017.3
20240613211021 18 23 3.2 9.7 0.00 0.00 0.00 36 1017.2
20240613210021 17 0 4.8 8.0 0.00 0.00 0.00 36 1017.4
20240613205021 18 23 4.8 9.7 0.00 0.00 0.00 38 1017.4
20240613204041 18 270 1.6 6.4 0.00 0.00 0.00 37 1017.4
20240613203020 18 23 4.8 12.9 0.00 0.00 0.00 40 1017.3
20240613202040 18 23 3.2 8.0 0.00 0.00 0.00 38 1017.4
20240613201021 17 0 3.2 9.7 0.00 0.00 0.00 38 1017.4
20240613200020 18 270 3.2 9.7 0.00 0.00 0.00 39 1017.7
20240613195041 17 315 3.2 9.7 0.00 0.00 0.00 40 1017.9
20240613194020 17 248 3.2 11.3 0.00 0.00 0.00 40 1018.0
20240613193020 17 293 3.2 11.3 0.00 0.00 0.00 39 1018.0
20240613192021 17 270 3.2 9.7 0.00 0.00 0.00 40 1017.9
20240613191020 17 23 3.2 9.7 0.00 0.00 0.00 43 1018.1
20240613190021 17 293 3.2 8.0 0.00 0.00 0.00 42 1018.2
20240613185020 17 293 3.2 6.4 0.00 0.00 0.00 44 1018.1
20240613184020 16 23 4.8 14.5 0.00 0.00 0.00 46 1018.2
20240613183020 16 23 4.8 12.9 0.00 0.00 0.00 49 1018.2
20240613182021 16 45 3.2 11.3 0.00 0.00 0.00 49 1018.3
20240613181020 16 23 4.8 9.7 0.00 0.00 0.00 49 1018.4
20240613180020 15 0 4.8 8.0 0.00 0.00 0.00 51 1018.4
20240613175020 15 315 3.2 11.3 0.00 0.00 0.00 51 1018.4
20240613174040 15 23 3.2 9.7 0.00 0.00 0.00 51 1018.6
20240613173020 15 315 3.2 6.4 0.00 0.00 0.00 52 1018.6
20240613172020 14 270 1.6 6.4 0.00 0.00 0.00 51 1018.7
20240613171020 14 248 3.2 9.7 0.00 0.00 0.00 53 1018.8
20240613170020 14 270 3.2 8.0 0.00 0.00 0.00 53 1018.9
20240613165020 13 0.0 1.6 0.00 0.00 0.00 56 1019.0
20240613164020 13 338 3.2 6.4 0.00 0.00 0.00 56 1018.9
20240613163040 13 45 1.6 6.4 0.00 0.00 0.00 56 1018.9
20240613162020 12 338 3.2 6.4 0.00 0.00 0.00 58 1018.9
20240613161020 12 45 3.2 8.0 0.00 0.00 0.00 57 1019.0
20240613160020 12 45 3.2 6.4 0.00 0.00 0.00 56 1018.9
20240613155020 12 23 4.8 9.7 0.00 0.00 0.00 56 1019.0
20240613154040 12 23 3.2 6.4 0.00 0.00 0.00 57 1019.1
20240613153020 12 338 3.2 9.7 0.00 0.00 0.00 57 1019.0
20240613152022 12 0 8.0 16.1 0.00 0.00 0.00 56 1019.2
20240613151022 12 23 3.2 6.4 0.00 0.00 0.00 59 1019.4
20240613150022 11 0 4.8 8.0 0.00 0.00 0.00 59 1019.3
20240613145022 11 23 4.8 6.4 0.00 0.00 0.00 59 1019.2
20240613144022 11 45 4.8 9.7 0.00 0.00 0.00 59 1019.2
20240613143022 11 315 4.8 9.7 0.00 0.00 0.00 59 1019.2
20240613142021 11 0 4.8 11.3 0.00 0.00 0.00 60 1019.2
20240613141020 11 0.0 4.8 0.00 0.00 0.00 60 1019.1
20240613140022 10 45 1.6 6.4 0.00 0.00 0.00 61 1019.0
20240613135022 10 23 4.8 8.0 0.00 0.00 0.00 61 1019.2
20240613134021 10 23 3.2 8.0 0.00 0.00 0.00 62 1019.3
20240613133022 10 0 1.6 6.4 0.00 0.00 0.00 62 1019.2
20240613132022 10 23 3.2 8.0 0.00 0.00 0.00 62 1019.3
20240613131022 10 23 3.2 6.4 0.00 0.00 0.00 63 1019.1
20240613130022 10 23 3.2 8.0 0.00 0.00 0.00 63 1019.1
20240613125022 10 23 1.6 6.4 0.00 0.00 0.00 63 1019.1